map of GYN home
Great Circle Mapper logo
GYN - Airport
Location
City:  Goiania, Goiás, Brazil
Name:Santa Genoveva
ICAO:SBGO
IATA:GYN

Details
Type:Airport (Aerodrome, Airfield)
Use:Public/Civil
Latitude:16°37'55"S (-16.632032)
Longitude:49°13'14"W (-49.220685)
Datum:WGS 1984
Elevation:2450 ft (747 m)
Variation:20.81°W (WMM2015 magnetic declination)
-0.11° annual change
Runways:1
Longest:8204 × 148 ft (2501 × 45 m), paved

Time
Time Zone:UTC-3 (DST-2)
Local Time:

Weather
METAR:SBGO 031700Z 25003KT 9999 FEW040 31/10 Q1018
TAF:SBGO 030800Z 0312/0412 13005KT CAVOK TX31/0318Z TN15/0409Z
BECMG 0318/0320 14005KT 7000 NSC
BECMG 0400/0402 12005KT CAVOK
RMK PDE

Related Locations
Nearby:
Farthest:VRC: 11959 mi / 19246 km
Virac, Catanduanes Island, PH

Find:

   beyond  
but within

Other Information
Maps:
NOTAMs:
Links:
Sources:

  
flag of Brazil
flag of Goiás
  

Sectional Chart

Flight Planning
at skyvector.com

Satellite Image

Google Maps Satellite view

 

Copyright © 2004-2016 Karl L. Swartz. All rights reserved.
The Great Circle Mapper name and logo are trademarks of the Great Circle Mapper.
All other trademarks mentioned herein belong to their respective owners.
Please see credits for attibutions and further copyright information.

  Follow gcmap on Facebook Follow gcmap on Twitter Follow gcmap on Google+ GCmap on LinkedIn

hCard Microformat

Geo Microformat